CAPE
0 0 0 0 0 0 0 0 0 0 0 3 0 0 0 0 0 0 0 72 528 1785 2170 2501 2466 2867 2883 3804 4014 3983 3971 4062
0 0 0 0 0 0 0 0 0 0 0 20 39 0 0 0 0 0 0 15 727 1178 1870 2104 2094 2429 2984 3550 3797 3916 3812 3973
0 0 0 0 0 0 0 0 0 0 0 47 208 5 0 0 0 0 0 5 701 1157 1609 1962 2058 2189 2581 3169 3335 3708 3720 3794
0 0 0 0 0 0 0 0 0 0 0 0 2 0 0 16 0 146 83 239 495 1047 1497 1836 1970 1910 2319 2797 2925 3447 3592 3875
0 1 4 1 0 0 0 0 14 1 1 16 8 0 3 26 61 396 757 1128 1302 1141 71 736 1220 3076 2518 3175 2902 2775 3502 3582
0 3 1 32 25 18 0 0 0 2 6 72 66 73 100 46 39 160 357 683 806 1315 450 428 897 1155 3483 3020 3002 2512 2761 2767
0 0 0 0 25 43 41 49 56 0 1 30 257 320 330 173 89 222 350 421 712 1207 1168 767 325 1382 3196 3187 3565 3223 4133 2660
0 0 0 13 34 45 22 51 52 34 20 13 327 201 173 497 307 299 457 452 572 848 899 1435 1733 2736 3082 4444 4410 4110 4268 4673
0 0 21 32 143 113 97 25 31 54 110 311 250 535 211 322 283 617 350 339 434 355 894 1479 1720 2339 3196 3790 4619 4321 4733 4431
0 0 0 0 0 0 39 76 148 130 53 144 300 390 381 21 136 500 309 232 365 328 539 817 898 1416 2793 3417 3777 4817 4493 4983
2 1 0 0 0 0 1 33 59 57 35 38 51 344 399 303 288 311 428 234 286 293 451 1190 1193 1557 2591 3348 3673 3545 4511 4433
20 6 4 0 0 2 10 15 12 9 116 295 97 539 544 193 170 239 104 408 565 661 626 445 878 1117 1500 2627 3149 3841 3361 4766
75 37 25 41 60 5 0 123 216 69 210 396 539 587 397 187 157 167 230 304 631 831 966 923 911 734 1638 2236 2846 3934 4280 4803
50 121 50 50 51 258 513 301 135 213 372 360 335 281 272 153 120 205 324 565 616 1075 1118 1043 1232 1256 1740 1999 3135 4136 4659 4732
51 33 279 83 7 127 72 322 417 396 398 328 350 250 253 363 225 390 473 694 753 1282 1121 1130 1290 1526 1949 2162 2437 3375 4193 4746
29 17 3 48 55 22 22 102 364 340 365 436 220 231 301 274 258 661 832 1305 1356 1543 1409 1433 1542 1681 2082 2201 2394 3143 3396 4413
0 0 45 0 55 125 157 351 622 438 309 237 224 163 452 811 840 935 1418 1571 1691 1672 1510 1429 1425 1599 1718 2013 2313 2322 2996 4078
116 216 138 309 332 168 112 102 119 300 448 504 493 596 667 626 960 1388 1883 2041 1898 1642 1380 1255 1277 1419 1642 1767 2281 2791 3289 3490
46 85 127 157 160 144 179 268 169 155 273 323 364 364 403 706 1101 1521 1966 1254 1614 1619 1523 1496 1426 1396 1372 1640 1829 2446 2831 2828
CIN
0 0 0 0 0 0 0 0 0 0 0 -9 0 0 0 0 0 0 0 -63 -2 -10 -17 -8 -7 -14 -21 -27 -27 -22 -3 -1
0 0 0 0 0 0 0 0 0 0 0 0 -10 0 0 0 0 0 0 -3 -2 -1 -7 -17 -17 -1 -10 -7 -22 -29 -8 -4
0 0 0 0 0 0 0 0 0 0 0 -9 -3 -6 0 0 0 0 0 -7 -2 -3 -2 -6 -8 -2 0 -5 -9 -19 -19 -8
0 0 0 0 0 0 0 0 0 0 0 0 -15 0 0 -20 0 -77 -60 -35 -17 0 -2 -5 -4 -4 -17 -28 -28 -29 -39 -15
0 -1 -5 -1 0 0 0 0 -1 -1 -1 -5 -26 0 -6 -19 -48 -41 -37 -54 -64 -93 -53 -21 -33 -25 -31 -53 -37 -28 -23 -27
0 -4 -8 -9 -9 0 0 0 0 0 -1 -13 -9 -9 -15 -19 -57 -90 -98 -90 -113 -209 -202 -163 -16 -20 -63 -43 -56 -35 -26 -40
0 0 0 -3 -1 -1 -7 0 -1 0 -5 -24 -76 -95 -16 -5 -19 -28 -86 -118 -108 -104 -87 -60 -536 -19 -106 -25 -39 -44 -22 -57
-1 0 0 -49 -22 -2 -2 -1 -2 -3 -9 -16 -15 -54 -32 -2 -2 -14 -60 -145 -161 -85 -89 -76 -78 -60 -81 -8 -10 -29 -37 -17
0 0 -12 -11 -1 -3 -3 -10 -1 -1 -2 -5 -4 -34 -12 -43 -34 -8 -44 -138 -168 -164 -103 -84 -90 -78 -32 -21 -10 -28 -31 -65
0 0 0 0 0 0 -13 -1 -2 -1 -7 0 -1 -28 -108 -28 -21 -6 -19 -107 -175 -186 -158 -157 -181 -131 -54 -24 -35 -10 -27 -17
0 0 0 0 0 0 -9 -1 -3 -5 -11 -20 -11 -56 -109 -106 -81 -52 -15 -60 -145 -217 -214 -146 -129 -111 -31 -13 -18 -31 -8 -26
-1 0 0 0 0 -4 -1 0 -3 -7 -4 -3 -5 -4 -39 -36 -81 -122 -38 -98 -126 -139 -164 -195 -161 -127 -108 -27 -37 -18 -75 -4
0 0 0 -2 -9 -1 0 -4 -11 -2 -4 -21 -10 -32 -37 -29 -27 -43 -60 -81 -100 -105 -97 -103 -116 -143 -69 -57 -47 -10 -10 -3
0 0 -1 -37 -36 -9 -17 -24 -31 -30 -8 -8 -29 -36 -70 -72 -74 -98 -100 -97 -103 -77 -67 -66 -47 -46 -21 -49 -10 -5 -2 -4
-1 0 -19 -5 -4 -16 -12 -9 -9 -15 -33 -62 -70 -38 -41 -57 -109 -93 -93 -66 -57 -20 -38 -49 -24 -13 -4 -30 -24 -1 0 -2
-1 -1 -4 -25 -5 -4 -11 -2 -26 -14 -5 -10 -22 -42 -39 -12 -12 -2 -5 -2 -3 -2 -8 -16 -12 -5 -1 -4 -3 0 0 -1
0 0 -6 0 -15 -15 -18 -14 -3 -7 -7 -24 -32 -30 -12 0 -3 -2 -2 -1 -1 -2 -18 -21 -28 -6 -2 -4 -3 -2 0 0
-14 -49 -47 -14 -28 -37 -41 -61 -44 -15 -1 -1 -1 -4 -16 -10 -3 -2 -2 -1 -1 -4 -16 -45 -45 -33 -6 -9 -1 0 0 0
-77 -102 -90 -96 -84 -66 -51 -28 -17 -7 0 -2 -1 -8 -5 -6 -9 -6 -5 -9 -5 -17 -16 -15 -27 -41 -43 -19 -2 0 0 -1
Wind_Speed
nan nan nan nan nan nan nan nan nan nan nan nan nan nan nan nan nan nan nan nan 22 24 24 29 21 22 21 24 20 20 22 20
nan nan nan nan nan nan nan nan nan nan nan nan nan nan nan nan nan nan nan nan 11 24 24 22 20 21 20 20 21 20 22 20
nan nan nan nan nan nan nan nan nan nan nan nan 20 nan nan nan nan nan nan nan 8 22 27 19 17 17 16 15 19 20 22 21
nan nan nan nan nan nan nan nan nan nan nan nan nan nan nan nan nan 47 nan 23 14 12 21 18 17 17 14 14 14 19 20 18
nan nan nan nan nan nan nan nan nan nan nan nan nan nan nan nan nan 44 33 32 36 41 nan 46 32 6 15 15 15 15 16 17
nan nan nan nan nan nan nan nan nan nan nan nan nan nan 43 nan nan 49 36 38 43 46 49 35 34 22 10 15 16 13 18 14
nan nan nan nan nan nan nan nan nan nan nan nan 39 36 28 34 nan 36 33 41 46 46 45 39 10 4 10 10 13 11 11 16
nan nan nan nan nan nan nan nan nan nan nan nan 30 43 33 18 42 41 43 41 45 44 43 34 21 11 17 15 16 16 14 14
nan nan nan nan 8 8 nan nan nan nan 12 21 24 40 44 37 32 44 36 41 42 45 42 30 31 29 26 28 20 17 19 20
nan nan nan nan nan nan nan nan 29 17 nan 25 35 43 45 nan 22 31 53 40 40 45 48 44 38 36 34 32 29 23 20 17
nan nan nan nan nan nan nan nan nan nan nan nan nan 46 49 67 75 42 62 63 46 47 46 45 40 37 37 37 34 30 24 18
nan nan nan nan nan nan nan nan nan nan 41 37 nan 38 47 69 64 63 34 28 32 37 43 47 46 44 42 44 43 34 31 26
nan nan nan nan nan nan nan 26 35 nan 44 41 45 52 59 63 59 49 40 36 39 37 40 44 47 47 46 45 45 43 38 33
nan 19 nan nan nan 31 35 34 46 36 40 39 49 49 52 52 53 46 43 42 40 38 36 39 43 47 49 47 45 47 43 39
nan nan 30 nan nan 32 nan 41 43 46 41 42 39 44 43 42 44 39 39 36 34 31 32 33 36 40 43 49 48 47 45 43
nan nan nan nan nan nan nan 41 41 52 40 40 45 40 37 37 40 40 38 36 34 31 27 30 33 33 39 41 47 48 46 43
nan nan nan nan nan 46 47 45 42 41 43 41 41 42 37 39 41 39 39 37 37 33 29 26 30 32 33 39 42 47 48 48
30 30 32 30 33 33 33 33 36 37 36 38 37 34 33 35 39 39 39 37 37 35 31 26 23 28 33 35 42 44 45 52
nan nan 28 26 25 26 29 30 31 30 33 35 26 26 23 27 31 36 41 40 41 37 33 30 27 26 31 34 40 41 50 57
Wind_Direction
nan nan nan nan nan nan nan nan nan nan nan nan nan nan nan nan nan nan nan nan 297 317 343 344 345 334 338 341 343 353 2 358
nan nan nan nan nan nan nan nan nan nan nan nan nan nan nan nan nan nan nan nan 289 317 331 343 347 334 333 336 343 353 1 3
nan nan nan nan nan nan nan nan nan nan nan nan 277 nan nan nan nan nan nan nan 222 321 333 339 339 332 333 337 346 351 359 0
nan nan nan nan nan nan nan nan nan nan nan nan nan nan nan nan nan 261 nan 216 211 301 313 315 335 340 324 331 353 350 352 359
nan nan nan nan nan nan nan nan nan nan nan nan nan nan nan nan nan 267 243 215 223 235 nan 200 182 286 330 325 342 350 341 351
nan nan nan nan nan nan nan nan nan nan nan nan nan nan 297 nan nan 272 255 229 229 244 268 233 159 159 162 317 326 347 333 344
nan nan nan nan nan nan nan nan nan nan nan nan 247 222 229 257 nan 275 260 244 235 252 266 281 294 177 118 281 305 317 315 327
nan nan nan nan nan nan nan nan nan nan nan nan 283 288 274 268 267 262 256 248 250 246 279 282 275 280 234 226 258 289 309 295
nan nan nan nan 195 266 nan nan nan nan 205 201 209 287 288 248 261 272 264 249 245 244 245 240 243 241 237 240 248 258 278 286
nan nan nan nan nan nan nan nan 198 205 nan 226 206 248 269 nan 187 241 270 256 259 244 241 237 229 228 233 240 242 251 257 277
nan nan nan nan nan nan nan nan nan nan nan nan nan 241 248 250 254 229 245 251 245 243 240 240 239 235 236 235 250 246 258 263
nan nan nan nan nan nan nan nan nan nan 232 213 nan 232 252 257 258 259 270 239 259 244 233 234 236 237 235 239 235 250 250 256
nan nan nan nan nan nan nan 239 236 nan 245 229 218 232 234 241 253 263 272 268 262 250 238 233 234 234 238 234 239 235 252 254
nan 217 nan nan nan 223 227 226 247 237 244 242 239 238 237 245 254 258 263 262 259 256 244 235 229 228 233 236 232 236 237 252
nan nan 216 nan nan 231 nan 249 231 257 251 248 231 254 241 248 251 249 250 256 255 255 250 244 237 228 226 230 230 231 230 247
nan nan nan nan nan nan nan 243 243 247 265 268 276 271 257 253 252 253 254 255 257 253 250 243 242 235 227 227 228 227 229 234
nan nan nan nan nan 246 248 250 254 256 258 260 265 264 259 259 256 254 253 254 257 256 250 245 235 232 230 226 226 227 226 228
278 255 263 257 244 245 250 254 254 253 253 259 257 260 259 254 257 258 259 258 258 252 247 242 240 233 229 227 226 220 228 230
nan nan 260 261 262 256 251 245 239 244 258 261 268 270 263 262 262 262 261 255 253 250 245 238 233 228 233 228 229 221 223 232